Theta_e
286 286 285 285 285 285 286 286 285 285 286 287 288 288 289 290 290 290 291 291 291 292 293 293 293 294 294
286 286 286 285 285 285 285 285 285 285 286 286 287 287 288 289 289 289 290 290 290 290 291 291 292 293 293
286 286 286 285 285 285 285 284 285 284 285 286 286 286 287 287 288 288 288 288 288 289 290 290 291 291 292
286 286 285 285 285 285 284 284 285 285 285 286 285 286 286 286 286 286 286 286 287 288 289 290 290 291 292
286 285 285 285 284 284 284 284 285 285 285 285 285 286 286 286 286 286 286 286 288 288 289 289 290 291 291
286 285 284 284 284 284 284 285 284 285 285 284 285 285 286 285 285 285 286 285 287 288 288 289 289 291 291
285 284 284 283 283 284 285 285 284 284 284 284 285 285 285 285 286 286 286 286 286 287 288 289 289 289 290
284 284 284 284 285 285 284 284 284 285 284 282 284 285 285 285 286 286 286 286 286 287 287 287 288 289 289
284 284 284 284 283 283 283 283 282 283 285 282 284 283 284 285 286 286 285 286 287 288 289 287 288 289 289
284 284 284 284 284 284 283 282 282 281 284 282 282 282 282 282 284 285 286 287 288 288 289 290 290 289 289
283 284 285 285 285 285 284 283 282 282 285 282 281 282 281 281 284 285 286 287 288 289 290 290 290 289 289
284 284 284 285 285 285 285 285 284 285 285 284 282 282 282 282 282 284 285 287 287 289 289 289 289 289 288
283 284 284 285 285 285 285 285 285 286 285 285 283 283 282 282 283 284 284 286 288 288 288 289 289 288 288
284 284 285 285 285 285 284 284 284 285 285 285 284 283 283 283 284 283 285 284 287 287 288 287 288 288 288
284 284 285 285 285 285 284 284 283 284 285 285 285 285 285 284 284 285 285 286 287 287 286 287 288 288 288
285 285 284 284 284 284 284 283 283 284 284 285 285 285 285 284 284 285 285 286 287 287 286 286 287 288 288
285 285 285 284 283 284 284 283 284 284 285 285 284 284 283 283 285 285 286 286 287 287 287 287 287 288 289
Wind_Speed
37 36 35 34 34 30 30 31 34 32 30 29 28 31 32 32 33 33 33 33 33 33 33 33 33 33 33
35 35 36 38 33 33 33 34 35 32 29 31 30 31 31 30 31 32 32 32 34 35 35 34 33 33 33
37 36 39 38 38 37 39 37 36 38 34 36 30 29 28 31 30 30 33 32 31 31 31 31 32 31 31
33 37 37 34 35 41 40 40 42 40 40 32 29 35 34 31 31 31 28 28 29 29 30 31 32 32 32
34 37 34 35 39 37 41 45 42 42 37 36 43 39 38 35 34 30 29 29 31 31 30 31 32 32 32
35 34 39 37 37 36 41 41 42 38 34 48 43 42 40 37 35 33 31 30 29 32 30 29 28 28 28
37 37 37 36 36 37 36 36 41 46 46 48 42 43 38 39 35 32 25 23 26 26 25 27 29 30 30
33 34 31 30 32 34 35 37 41 39 37 39 42 40 42 40 34 25 25 25 23 26 27 26 27 28 29
27 27 26 29 25 27 30 33 40 38 37 35 38 46 45 41 33 33 34 29 27 23 23 24 25 26 29
32 32 28 26 23 24 28 31 35 37 35 34 39 39 31 33 38 38 36 31 27 27 23 21 21 22 25
32 29 27 26 27 28 28 30 34 37 35 29 36 35 30 40 44 42 39 35 32 27 22 20 22 22 26
29 30 29 28 29 30 28 28 29 33 33 28 31 32 33 39 44 44 40 35 32 29 26 27 27 26 26
28 28 28 31 31 31 30 27 29 30 28 29 29 28 27 34 40 42 41 37 26 28 33 33 34 32 33
28 30 30 30 32 31 34 33 37 35 29 29 26 26 30 33 35 40 36 36 36 36 36 38 36 33 32
30 30 31 33 34 32 32 36 35 37 36 29 27 28 30 32 34 35 35 37 38 39 39 40 39 36 35
28 31 34 35 35 34 33 32 34 34 35 33 35 35 35 34 26 31 37 41 40 38 36 38 43 40 37
30 33 34 34 34 34 33 32 33 34 34 36 34 32 36 36 38 27 32 38 35 37 35 37 39 42 36
Wind_Direction
305 310 314 318 320 317 315 314 314 315 305 302 300 297 296 296 295 293 292 290 288 285 283 279 277 275 273
311 319 320 321 320 319 320 320 315 316 309 303 302 300 297 296 295 294 293 291 287 283 280 279 277 275 274
315 317 319 320 321 322 321 319 319 318 313 314 308 307 304 299 297 293 291 290 286 284 283 282 279 277 274
309 314 317 313 315 316 317 317 318 318 317 317 313 318 314 313 307 309 300 293 289 287 286 283 281 279 277
309 311 310 311 314 315 313 316 315 317 315 316 318 318 318 317 315 311 306 298 292 288 286 283 281 278 277
308 305 306 310 312 311 310 313 310 315 308 311 317 316 320 320 318 313 306 297 293 290 288 284 283 281 279
302 306 308 309 308 309 311 308 302 304 308 306 314 315 321 316 318 318 312 303 296 293 292 288 283 279 277
307 304 304 308 306 302 299 297 298 303 310 301 316 315 319 317 319 320 322 319 304 298 293 290 286 284 279
305 303 302 304 303 302 303 309 311 312 316 310 316 316 316 318 325 325 324 318 314 309 304 295 289 286 278
310 310 311 311 312 312 314 310 308 308 315 309 313 318 315 312 315 319 321 323 319 316 309 302 299 288 283
308 313 317 317 319 318 316 313 310 302 318 310 306 311 300 303 311 315 318 320 318 315 309 303 304 297 291
316 318 320 320 320 317 315 310 309 307 316 315 306 308 306 304 304 314 316 316 314 312 315 312 309 304 295
321 321 322 322 322 322 320 319 317 318 320 320 314 311 305 301 303 309 312 314 309 310 313 310 310 309 307
325 325 327 329 328 328 326 328 324 326 329 326 324 318 310 307 306 301 309 294 311 312 313 309 304 304 305
331 331 332 331 330 331 329 328 323 324 327 331 329 324 317 313 308 311 310 307 312 312 309 305 305 308 306
336 336 334 334 333 333 330 326 325 327 327 332 332 330 329 320 308 304 307 305 309 310 306 298 306 307 298
339 338 337 336 336 335 335 333 329 329 330 332 331 329 315 304 317 305 292 304 309 310 308 300 292 298 304